Location: Blackie
(50.6050°N, 113.6230°W)
Time: 07:01:36
(UTC+00:00)

N. Korean satellite - Pass Details

Date: 09 December 2021
Orbit: 446 x 491 km, 97.3° (Epoch: 18 January)

Event Time Altitude Azimuth Distance (km) Brightness Sun altitude
Rises 00:25:40 0° 187° (S) 2,512 10.7 -8.4°
Reaches altitude 10° 00:27:52 10° 197° (SSW) 1,631 9.9 -8.7°
Maximum altitude 00:31:03 33° 263° (W) 812 8.5 -9.1°
Drops below altitude 10° 00:34:14 10° 329° (NNW) 1,619 9.3 -9.6°
Sets 00:36:24 0° 339° (NNW) 2,491 10.1 -9.9°
